Location: Miles
(41.4492°N, 81.6087°W)
Time: 12:25:42
(UTC+00:00)

Vanguard 2 - All Passes

Search period start: 07 September 2024 00:00
Search period end: 17 September 2024 00:00
Orbit: 552 x 2911 km, 32.9° (Epoch: 06 September)

Date Brightness Start Highest point End Pass type
(mag) Time Alt. Az. Time Alt. Az. Time Alt. Az.
07 Sep - 09:04:49 10° SSE 09:08:31 15° SE 09:13:04 10° ESE visible
07 Sep - 11:08:11 10° SW 11:15:39 43° SSE 11:27:34 10° E daylight
07 Sep - 13:14:58 10° WSW 13:24:58 58° S 13:40:28 10° ESE daylight
07 Sep - 15:23:21 10° W 15:35:37 49° SSW 15:51:58 10° SE daylight
07 Sep - 17:34:06 10° W 17:46:14 28° SW 17:59:43 10° SSE daylight
08 Sep - 09:17:11 10° S 09:21:51 20° SE 09:28:08 10° E visible
08 Sep - 11:21:46 10° SW 11:29:21 47° SSE 11:41:40 10° E daylight
08 Sep - 13:28:50 10° WSW 13:38:52 57° S 13:54:20 10° ESE daylight
08 Sep - 15:37:25 10° W 15:49:27 44° SSW 16:05:16 10° SE daylight
08 Sep - 17:49:04 10° W 17:59:51 22° SW 18:11:40 10° S daylight
09 Sep - 09:30:05 10° SSW 09:35:16 25° SE 09:42:42 10° E visible
09 Sep - 11:35:26 10° WSW 11:43:06 51° SSE 11:55:41 10° E daylight
09 Sep - 13:42:44 10° W 13:52:45 54° S 14:08:05 10° ESE daylight
09 Sep - 15:51:35 10° W 16:03:15 38° SSW 16:18:19 10° SE daylight
09 Sep - 18:04:46 10° WSW 18:13:26 17° SW 18:22:46 10° S daylight
10 Sep - 09:43:17 10° SSW 09:48:46 30° SSE 09:57:00 10° E visible
10 Sep - 11:49:10 10° WSW 11:56:55 53° S 12:09:39 10° ESE daylight
10 Sep - 13:56:40 10° W 14:06:39 50° SSW 14:21:43 10° ESE daylight
10 Sep - 16:05:56 10° W 16:17:02 32° SSW 16:31:04 10° SSE daylight
10 Sep - 18:22:25 10° WSW 18:27:02 12° SW 18:31:49 10° SSW daylight
11 Sep - 09:56:41 10° SW 10:02:21 35° SSE 10:11:10 10° E visible
11 Sep - 12:02:59 10° WSW 12:10:46 53° S 12:23:34 10° ESE daylight
11 Sep - 14:10:39 10° W 14:20:31 45° SSW 14:35:11 10° SE daylight
11 Sep - 16:20:31 10° W 16:30:47 26° SSW 16:43:25 10° SSE daylight
12 Sep - 08:06:32 10° SSE 08:09:05 13° SE 08:12:06 10° ESE visible
12 Sep - 10:10:14 10° SW 10:16:02 40° SSE 10:25:14 10° E visible
12 Sep - 12:16:48 10° WSW 12:24:38 52° S 12:37:24 10° ESE daylight
12 Sep - 14:24:43 10° W 14:34:23 40° SSW 14:48:27 10° SE daylight
12 Sep - 16:35:33 10° WSW 16:44:31 20° SW 16:55:12 10° S daylight
13 Sep - 08:19:02 10° S 08:22:32 18° SE 08:27:00 10° ESE visible
13 Sep - 10:23:53 10° WSW 10:29:45 44° SSE 10:39:14 10° E visible
13 Sep - 12:30:41 10° WSW 12:38:30 49° S 12:51:08 10° ESE daylight
13 Sep - 14:38:53 10° W 14:48:14 34° SSW 15:01:26 10° SSE daylight
13 Sep - 16:51:27 10° WSW 16:58:15 15° SW 17:05:58 10° S daylight
14 Sep - 08:32:05 10° SSW 08:36:03 23° SSE 08:41:26 10° ESE visible
14 Sep - 10:37:35 10° WSW 10:43:32 46° S 10:53:11 10° ESE visible
14 Sep - 12:44:36 10° W 12:52:22 44° S 13:04:44 10° SE daylight
14 Sep - 14:53:15 10° WSW 15:02:04 28° SSW 15:14:05 10° SSE daylight
15 Sep - 08:45:24 10° SW 08:49:38 27° SSE 08:55:38 10° E visible
15 Sep - 10:51:22 10° WSW 10:57:21 46° S 11:07:03 10° ESE daylight
15 Sep - 12:58:35 10° W 13:06:14 39° SSW 13:18:09 10° SE daylight
15 Sep - 15:07:56 10° WSW 15:15:54 22° SSW 15:26:17 10° SSE daylight
16 Sep - 08:58:53 10° SW 09:03:17 32° SSE 09:09:42 10° ESE visible
16 Sep - 11:05:11 10° WSW 11:11:10 44° S 11:20:51 10° ESE daylight
16 Sep - 13:12:40 10° WSW 13:20:07 34° SSW 13:31:21 10° SE daylight
16 Sep - 15:23:12 10° WSW 15:29:45 17° SSW 15:37:46 10° S daylight
